Simultaneous Nadir Overpasses (SNOs) Predictions

Prediction of SNOs between NOAA-21 and LANDSAT-8 Satellite Orbit:

Table of predicted SNOs for the next 14.0 days since TLE Epoch: 2/24/2024
Index Date (NOAA-21) Time (NOAA-21) Lat,Lon (NOAA-21) SZA (NOAA-21 ) Date (LANDSAT-8) Time (LANDSAT-8) Lat,Lon (LANDSAT-8) SZA (LANDSAT-8 ) Distance(km) Time Diff (sec)
1 02/25/2024 07:59:48 70.02, 56.09 79.30 02/25/2024 08:00:15 70.00, 56.17 79.27 3.58 27
2 02/25/2024 08:50:29 -69.88,-136.39 100.86 02/25/2024 08:49:45 -69.88,-136.37 100.86 0.79 44
3 02/27/2024 23:26:04 -70.16, 4.32 101.55 02/27/2024 23:27:15 -70.12, 4.57 101.61 10.53 71
4 02/28/2024 00:16:46 69.93, 171.98 78.20 02/28/2024 00:16:44 69.91, 171.92 78.18 3.26 2
5 02/28/2024 01:07:27 -69.79, -20.49 101.96 02/28/2024 01:06:14 -69.79, -20.61 101.95 4.43 73
6 03/01/2024 15:43:01 -70.02, 120.29 102.71 03/01/2024 15:43:44 -70.00, 120.29 102.74 2.63 43
7 03/01/2024 16:33:45 69.90, -72.23 77.15 03/01/2024 16:33:11 69.90, -72.21 77.15 0.96 34
8 03/04/2024 07:09:25 70.47, 68.03 76.75 03/04/2024 07:10:35 70.40, 69.13 76.63 41.29 70
9 03/04/2024 07:59:59 -69.95,-123.85 103.82 03/04/2024 08:00:11 -69.96,-123.88 103.81 1.88 12
10 03/04/2024 08:50:43 69.83, 43.64 76.05 03/04/2024 08:49:38 69.85, 43.62 76.08 2.58 65
11 03/06/2024 23:26:15 70.04,-175.54 75.25 03/06/2024 23:27:07 70.01,-175.56 75.21 3.41 52
12 03/07/2024 00:16:57 -69.94, -8.07 104.88 03/07/2024 00:16:36 -69.95, -8.00 104.87 2.94 21



Historial Predications of SNOs between NOAA-21 and LANDSAT-8
